Regional Weather Roundup
Issued by NWS

Home | Current Version | Previous Version | Graphics & Text | Print | Product List | Glossary On
Versions: 1 2 3 4 5 6 7 8 9 10 11 12 13 14 15 16 17 18 19 20 21 22 23 24 25 26 27 28 29 30 31 32 33 34 35 36 37 38 39 40 41 42 43 44 45 46 47 48 49 50
000
ASUS43 KMKX 291000
RWRWI

WISCONSIN REGIONAL WEATHER ROUNDUP
NATIONAL WEATHER SERVICE MILWAUKEE/SULLIVAN WI
500 AM CDT FRI AUG 29 2014

NOTE: "FAIR" INDICATES FEW OR NO CLOUDS BELOW 12,000 FEET WITH NO
SIGNIFICANT WEATHER AND/OR OBSTRUCTIONS TO VISIBILITY.

WIZ001-002-006>008-014>016-023>028-291100-
NORTHWEST WISCONSIN

CITY           SKY/WX    TMP DP  RH WIND       PRES   REMARKS
SUPERIOR ARPT  CLOUDY    62  60  96 NE6       29.86S
ASHLAND        CLOUDY    63  58  83 S7        29.90F
HAYWARD        CLOUDY    61  59  93 VRB7      29.91R
SIREN          HVY RAIN  62  60  94 SE8       29.86S
RICE LAKE      CLOUDY    60  57  91 SE12      29.91S
LADYSMITH      CLOUDY    60  58  94 SE6       29.94S
EAU CLAIRE     NOT AVBL
MENOMONIE      RAIN      60  60  97 E8        29.89F
NEW RICHMOND   RAIN      62  62  99 SE9       29.86S
OSCEOLA        LGT RAIN  64  64 100 E9        29.87S
$$

WIZ003>005-009-010-017-018-291100-
NORTH CENTRAL WISCONSIN

CITY           SKY/WX    TMP DP  RH WIND       PRES   REMARKS
WOODRUFF       CLOUDY    59  56  88 SE9       29.96S
RHINELANDER    LGT RAIN  57  56  96 SE7       29.98S FOG
EAGLE RIVER    CLOUDY    57  57 100 CALM      29.97F
LAND O LAKES   CLOUDY    59  55  84 S6        29.98F
PHILLIPS       CLOUDY    58  57  97 SE8       29.94S FOG
TOMAHAWK       RAIN      56  55  95 CALM      29.97S
MEDFORD        CLOUDY    56  55  99 SE5       29.95S FOG
MERRILL        DRIZZLE   57  57 100 SE6       29.97S
$$

WIZ029-030-035-036-043>047-291100-
CENTRAL WISCONSIN

CITY           SKY/WX    TMP DP  RH WIND       PRES   REMARKS
WAUSAU         CLOUDY    58  57  97 E7        29.95F
MOSINEE        CLOUDY    57  57 100 SE5       29.97S
MARSHFIELD     CLOUDY    59  58  96 SE5       29.95S FOG
STEVENS POINT  CLOUDY    58  57  97 E5        29.97S
WAUPACA        CLOUDY    62  61  95 CALM      29.97S
WAUTOMA        NOT AVBL
WISC RAPIDS    CLOUDY    60  59  96 S3        29.97R
CAMP DOUGLAS   NOT AVBL
$$

WIZ011>013-019>022-031-037>040-048>050-291100-
NORTHEAST WISCONSIN

CITY           SKY/WX    TMP DP  RH WIND       PRES   REMARKS
ANTIGO         CLOUDY    56  56  99 SE10      29.98F FOG
STURGEON BAY   CLOUDY    61  55  82 E7        30.00F
GREEN BAY      CLOUDY    61  60  97 E8        29.97F
MANITOWOC      NOT AVBL
APPLETON       CLOUDY    61  61 100 E5        29.97S
CLINTONVILLE   DRIZZLE   59  59 100 NE3       29.98S
OSHKOSH        CLOUDY    64  62  93 S5        29.95S
$$

WIZ032>034-041-042-053>061-291100-
SOUTHWEST WISCONSIN

CITY           SKY/WX    TMP DP  RH WIND       PRES   REMARKS
LA CROSSE      LGT RAIN  66  62  87 E7        29.88F
SPARTA         CLOUDY    61  59  94 E6        29.92F
VIROQUA        CLOUDY    65  65 100 SE5       29.93F
BOSCOBEL       CLOUDY    69  66  90 S6        29.92F
PRAIRIE DU CHI LGT RAIN  68  66  93 E6        29.89F
PLATTEVILLE    CLOUDY    67  66  97 CALM      29.95R
$$

WIZ056-057-062-063-064-067-068-291100-
SOUTH CENTRAL WISCONSIN

CITY           SKY/WX    TMP DP  RH WIND       PRES   REMARKS
BARABOO/DELLS  MOCLDY    65  61  87 S5        29.93F
LONE ROCK      CLOUDY    72  64  78 CALM      29.94R
WATERTOWN      MOCLDY    64  64  99 SE5       29.95S
MADISON        CLOUDY    66  63  90 S6        29.94S
MIDDLETON      CLOUDY    67  65  94 S5        29.95S
MONROE         CLOUDY    64  63  94 S7        29.95S FOG
JANESVILLE     MOCLDY    66  64  94 CALM      29.95S FOG
$$

WIZ051-052-058>065-066-070>072-291100-
SOUTHEAST WISCONSIN

CITY           SKY/WX    TMP DP  RH WIND       PRES   REMARKS
MILWAUKEE      MOCLDY    70  66  87 S8        29.97S
WAUKESHA       MOCLDY    64  63  94 SE6       29.98S
MILWAUKEE/TIMM MOCLDY    68  63  83 SE5       29.98S
RACINE         MOCLDY    71  66  84 S14       29.99S
BURLINGTON     MOCLDY    64  63  97 S3        29.97S
KENOSHA        MOCLDY    71  66  84 S7        29.98S
FOND DU LAC    CLOUDY    65  61  87 S7        29.96S
SHEBOYGAN      CLOUDY    66  61  84 SE7       29.97F
WEST BEND      CLOUDY    64  61  88 CALM      29.97S
JUNEAU         MOCLDY    64  62  91 SE6       29.97S
$$

LSZ147-162-291100-
LAKE SUPERIOR

STATION/POSITION TIME  TEMP    WIND        PRES    WAVE
                       AIR SEA DIR/SP/G            HT/PER
                 (UTC) (F)     (DEG/KT/KT) (MB)    (FT/S)
W MID LAKE BUOY  0850   59 56  140/  6/  6 1013.1F   1
DEVILS ISLAND    0900   62      90/  4/  4 1012.6F
PORT WING        0900   63      70/  3/  4 1011.9F
SAXON HARBOR     0900   66     190/  4/  9 1012.5F
$$

LMZ867-665-643>646-291100-
LAKE MICHIGAN

STATION/POSITION TIME  TEMP    WIND        PRES    WAVE
                       AIR SEA DIR/SP/G            HT/PER
                 (UTC) (F)     (DEG/KT/KT) (MB)    (FT/S)
N MID LAKE BUOY  0850   65 65  150/ 12/ 14 1016.6F   2/ 3
NORTHPORT PIER   0900   65     150/  6/  8 1016.3F
SISTER BAY       0811   64     160/  6/  8   N/A
ALGOMA LAKESHORE 0923          120/ 10/ 12   N/A
KEWAUNEE LAKESHO 0900   63     120/  8/ 11 1014.9F
SHEBOYGAN LAKESH 0900   67 69  150/ 17/ 19 1015.0F
ATWATER BUOY     0900   70     150/ 12/ 16 1015.8S
MILWAUKEE LAKESH 0900   70     160/ 10/ 11   N/A
S MID LAKE BUOY  0750   69 69  120/ 10/ 12 1015.8F   2/ 5
KENOSHA   LAKESH 0900   72     160/ 16/ 18 1014.6S
$$

TC  - TEMPERATURE IN CELSIUS
VSB - VISIBILITY IN STATUTE MILES
WCI - WIND CHILL INDEX
HX  - HEAT INDEX



USA.gov is the U.S. government's official web portal to all federal, state and local government web resources and services.